Location: Alpine Heights
(32.8181°N, 116.7809°W)
Time: 14:10:56
(UTC+00:00)

Daily predictions for brighter satellites

Satellite Brightness Start Highest point End
(mag) Time Altitude Azimuth Time Altitude Azimuth Time Altitude Azimuth
IDEFIX/ARIANE 42P 4.5 12:01:08 10° NW 12:03:07 12° WNW 12:03:11 12° WNW
Centaur D AC-29 2.0 12:05:28 21° SSW 12:05:43 21° SSW 12:08:10 10° SE
Cosmos 2369 Rocket 2.7 12:03:51 10° S 12:09:18 59° ESE 12:14:48 10° NNE
Cosmos 1943 Rocket 2.2 12:05:17 16° SSW 12:09:52 68° WNW 12:15:31 10° NNE
METEOR-M 4.3 12:05:56 10° NNE 12:11:17 77° ESE 12:16:37 10° S
Cosmos 1378 Rocket 3.7 12:08:58 10° S 12:13:24 77° E 12:17:49 10° N
Cosmos 1727 Rocket 3.9 12:08:22 10° S 12:14:32 80° W 12:20:48 10° N
Lacrosse 5 rocket 3.6 12:21:02 12° SSW 12:21:02 12° SSW 12:21:32 10° SSW
Cosmos 2298 Rocket 4.3 12:14:00 10° S 12:19:17 74° ESE 12:24:35 10° NNE
GP-B 3.1 12:15:18 10° N 12:19:45 85° E 12:24:11 10° S
Cosmos 1733 3.0 12:16:32 10° NNW 12:20:17 69° W 12:24:01 10° S
ARIANE 5 R/B 4.4 12:20:21 10° NW 12:22:25 12° WNW 12:23:43 11° W
Cosmos 1356 Rocket 3.6 12:18:49 10° NNW 12:22:44 46° W 12:26:42 10° SSW
Cosmos 1674 Rocket 3.5 12:18:42 10° SSW 12:22:59 65° W 12:27:18 10° N
BREEZE-M DEB (TANK) 3.9 12:20:45 13° SW 12:24:54 79° SE 12:41:05 10° NE
Cosmos 1707 4.4 12:21:24 10° SSE 12:24:58 37° E 12:28:33 10° NNE
Abrixas rocket 1.2 12:25:08 27° W 12:25:56 46° SW 12:27:54 10° SE
Helios 1B 4.5 12:24:30 10° S 12:28:48 70° WSW 12:33:08 10° NNW
Cosmos 1842 3.3 12:28:18 10° SSW 12:32:06 55° W 12:35:56 10° N
Meteor 2-20 Rocket 4.4 12:27:22 10° S 12:33:28 78° W 12:39:37 10° N
ATLAS 5 CENTAUR R/B 2.8 12:29:00 10° NW 12:34:56 49° WSW 12:41:38 10° S
Cosmos 2151 Rocket 3.8 12:32:42 10° NNW 12:37:05 52° W 12:41:28 10° S
Meteor 1-21 4.4 12:31:48 10° S 12:37:30 82° E 12:43:17 10° N
DELTA 2 R/B (1) 4.5 12:33:15 10° WNW 12:38:32 43° N 12:43:51 10° ENE
Cosmos 1459 Rocket 4.5 12:35:49 10° N 12:42:10 70° E 12:48:28 10° SSE
Okean 2 Rocket 3.8 12:39:06 10° NNW 12:43:02 32° W 12:46:56 10° SSW
ATLAS 2AS CENTAUR R/B 4.0 12:37:12 10° NNW 12:44:05 46° NE 12:50:27 10° SE
Landsat 5 3.7 12:42:59 10° S 12:47:15 58° W 12:51:40 10° NNW
Meteor 1-31 Rocket 2.7 12:44:15 10° N 12:48:04 83° WNW 12:51:53 10° SSW
Milstar 3 4.1 12:39:40 10° W 12:48:18 71° S 13:05:12 10° E
CZ-4B R/B 4.0 12:51:23 10° N 12:55:33 66° WNW 12:59:51 10° SSW
